Location: Peterborough
(44.3091°N, 78.3197°W)
Time: 00:34:27
(UTC-04:00)

BlueWalker 3 - Visible Passes

Search period start: 08 June 2023 00:00
Search period end: 18 June 2023 00:00
Orbit: 494 x 513 km, 53.2° (Epoch: 07 June)

Date Brightness Start Highest point End Pass type
(mag) Time Alt. Az. Time Alt. Az. Time Alt. Az.
08 Jun 2.5 00:02:10 10° NW 00:05:59 53° NNE 00:07:03 39° E visible
08 Jun 4.3 01:41:01 10° WNW 01:41:42 14° W 01:41:42 14° W visible
08 Jun 4.2 22:03:16 10° NW 22:06:24 23° N 22:09:32 10° ENE visible
08 Jun 2.5 23:41:44 10° NW 23:45:32 55° NNE 23:46:53 35° E visible
09 Jun 4.2 01:20:36 10° WNW 01:21:32 15° W 01:21:32 15° W visible
09 Jun 4.1 21:42:49 10° NW 21:45:57 23° N 21:49:06 10° ENE visible
09 Jun 2.4 23:21:16 10° NW 23:25:05 56° NNE 23:26:45 30° E visible
10 Jun 4.1 01:00:10 10° WNW 01:01:25 17° W 01:01:25 17° W visible
10 Jun 2.4 23:00:49 10° NW 23:04:37 57° NNE 23:06:41 25° E visible
11 Jun 3.9 00:39:44 10° WNW 00:41:21 19° W 00:41:21 19° W visible
11 Jun 2.3 22:40:20 10° NW 22:44:10 58° NNE 22:46:39 20° ESE visible
12 Jun 3.7 00:19:16 10° WNW 00:21:19 21° WSW 00:21:19 21° WSW visible
12 Jun 2.3 22:19:51 10° NW 22:23:40 59° NNE 22:26:40 16° ESE visible
12 Jun 3.6 23:58:49 10° WNW 00:01:20 23° WSW 00:01:20 23° WSW visible
13 Jun 2.3 21:59:21 10° NW 22:03:11 61° NNE 22:06:43 12° ESE visible
13 Jun 3.5 23:38:21 10° W 23:41:23 23° SW 23:41:23 23° SW visible
14 Jun 2.3 21:38:51 10° NW 21:42:40 62° NNE 21:46:30 10° ESE visible
14 Jun 3.5 23:17:52 10° W 23:20:55 22° SW 23:21:29 21° SW visible
15 Jun 3.6 22:57:23 10° W 23:00:23 22° SW 23:01:37 19° SSW visible
16 Jun 3.7 22:36:53 10° W 22:39:50 21° SW 22:41:48 15° S visible
17 Jun 3.8 22:16:23 10° W 22:19:18 21° SW 22:22:02 11° S visible
